Theta_e
298 298 298 299 298 298 299 300 302 302 303 307 303 308 309 307 308 308 309 309 310 311 312 312 315 317 314 305 306 315 313 315 320 321 322 317 325 329 330 334 333 332 335 334
298 298 298 298 298 298 300 300 300 300 303 304 304 306 307 307 308 309 308 309 309 307 311 311 310 310 308 307 308 309 309 314 315 320 318 320 320 321 319 316 325 331 336 336
298 298 299 298 298 298 298 299 301 300 303 303 304 306 308 309 307 307 307 307 306 308 309 308 308 307 306 307 303 305 308 313 313 314 317 314 317 316 315 315 318 322 324 330
298 298 298 298 297 297 297 297 301 301 303 302 303 303 304 305 306 306 306 306 307 306 307 306 306 306 303 301 302 308 309 308 310 310 308 308 310 313 315 318 316 320 320 319
297 297 297 297 297 297 297 298 300 300 300 302 303 304 305 305 306 307 306 306 303 305 304 303 303 302 302 302 303 305 304 306 306 307 307 308 311 311 311 317 317 317 319 319
297 297 297 297 297 297 297 296 297 301 300 301 302 303 303 304 303 303 302 303 303 303 303 302 302 302 302 303 304 304 304 304 306 305 305 308 310 311 314 316 316 316 320 317
297 297 297 296 296 297 298 296 297 301 301 302 302 301 302 302 301 302 300 302 302 301 300 300 300 301 302 303 303 303 304 305 305 307 305 309 306 308 310 312 315 316 316 316
297 297 297 297 295 296 298 297 298 300 300 301 301 300 301 300 299 300 300 300 300 299 300 301 302 302 304 303 304 304 304 305 304 306 305 304 305 308 309 312 310 313 315 314
297 297 297 296 296 298 298 297 297 298 301 300 299 300 300 301 300 300 300 299 300 300 301 302 301 299 300 300 302 304 305 305 305 307 308 305 308 309 309 310 312 309 311 313
297 297 296 295 294 298 297 297 296 296 300 298 298 300 300 300 300 300 300 300 300 300 302 302 302 301 302 304 303 304 305 307 308 311 310 308 305 304 308 314 313 310 309 310
296 295 296 295 296 296 297 295 295 296 298 298 297 298 298 300 299 300 299 299 300 301 301 301 301 301 300 300 299 300 303 305 304 306 311 311 304 306 311 309 307 308 309 309
296 296 296 296 296 296 295 294 294 295 297 297 296 297 297 296 297 299 299 299 299 300 300 301 300 299 299 297 298 296 298 298 297 299 302 300 301 301 301 303 307 307 306 307
295 295 295 295 296 296 295 293 293 293 297 297 296 296 296 296 296 297 299 299 298 298 299 300 299 298 297 297 296 296 296 297 300 297 301 300 301 301 300 301 303 306 307 307
294 294 295 296 296 296 295 293 292 295 297 298 296 295 296 296 296 296 296 298 298 298 298 298 298 297 296 296 295 296 296 295 295 295 295 297 303 301 299 299 303 306 306 306
295 296 296 296 296 294 295 293 295 295 297 298 297 296 296 296 297 297 297 298 299 298 297 298 298 296 297 296 296 296 295 295 296 295 295 296 297 297 297 298 302 303 306 305
296 295 295 294 293 294 296 296 295 296 296 297 298 297 297 296 297 298 298 298 298 298 298 298 297 296 296 296 295 295 295 296 296 296 295 296 296 297 297 297 298 301 301 302
295 294 294 294 294 296 297 297 296 295 295 298 299 298 296 295 297 298 298 298 298 298 298 298 298 297 297 297 296 296 296 296 296 296 296 296 296 296 296 296 296 297 298 301
294 294 294 294 294 294 295 295 294 295 296 296 298 298 297 295 298 299 297 298 298 299 298 298 297 297 297 297 296 296 296 296 296 296 296 296 297 297 296 296 296 296 297 301
294 293 292 294 294 295 295 294 294 294 295 297 297 297 297 295 297 297 298 297 298 297 297 296 296 296 296 295 295 296 297 296 296 297 297 296 296 297 296 297 296 297 298 302
293 293 294 295 294 293 293 293 296 296 295 296 297 295 297 296 296 297 296 294 296 295 295 295 296 295 295 296 297 298 298 297 298 299 298 297 297 297 297 297 298 299 300 301
294 295 294 294 293 294 294 295 295 295 296 295 295 295 295 294 296 296 294 296 295 296 295 295 296 297 298 298 296 297 298 298 298 299 299 297 297 297 300 300 300 301 300 300
293 294 293 293 293 293 294 293 293 294 293 294 294 295 295 295 294 296 295 296 295 295 295 296 297 297 298 297 296 296 297 297 298 297 297 297 298 299 299 298 299 301 296 292
292 294 293 293 292 293 294 292 293 294 294 294 295 296 297 296 296 297 297 296 296 296 298 297 297 298 296 296 296 297 297 298 298 298 298 298 297 295 294 293 292 292 291 290
295 294 293 293 293 292 293 293 293 294 294 295 296 297 297 296 297 297 297 297 296 297 298 296 299 296 295 295 295 295 296 296 296 296 295 293 293 292 292 291 291 291 291 290
293 293 292 293 293 293 293 294 294 295 296 297 298 297 297 297 297 296 297 297 298 298 298 299 296 295 294 293 293 293 294 294 294 295 294 293 292 292 292 290 290 290 289 289
293 293 294 294 294 296 295 295 297 296 297 296 296 297 298 298 297 297 297 297 299 300 298 295 294 294 293 291 292 292 292 293 293 294 293 293 293 293 293 291 291 290 290 290
293 294 294 295 295 295 296 296 296 297 296 296 296 298 297 298 299 299 299 299 299 298 296 294 293 292 292 291 292 292 292 292 293 293 291 292 292 292 293 293 291 290 289 289
Wind_Speed
18 17 15 14 10 8 7 2 3 1 8 7 3 4 4 5 6 6 9 7 9 5 3 4 3 4 4 6 4 8 10 5 5 4 20 20 23 29 31 12 23 15 18 15
20 18 16 15 14 10 5 3 3 7 7 6 9 6 5 6 7 7 5 5 5 2 4 5 4 4 3 3 4 4 4 3 6 8 6 3 5 11 11 16 11 23 16 14
20 19 19 19 17 16 12 2 4 3 4 8 10 12 8 7 7 6 6 4 5 5 5 5 2 4 5 5 10 8 7 3 6 11 18 14 13 19 18 5 5 10 9 13
23 21 20 21 21 19 13 3 5 6 5 7 12 13 9 18 12 10 12 7 11 8 6 4 6 7 9 9 9 6 5 8 12 18 21 18 22 26 26 18 13 9 12 2
27 26 23 21 21 20 17 4 5 2 6 4 11 15 9 10 7 6 7 9 8 10 7 8 4 7 8 10 7 5 5 9 11 17 20 18 18 23 28 22 16 15 19 12
30 30 29 26 23 23 7 6 3 5 9 11 11 8 5 4 4 5 7 6 6 8 12 10 11 12 14 15 13 12 10 8 10 18 18 15 12 13 15 18 21 19 14 8
31 31 31 30 26 28 17 7 4 4 10 10 8 5 7 8 6 4 5 9 8 1 0 9 14 17 20 22 23 19 15 16 10 14 17 20 17 7 9 14 17 10 11 10
28 29 29 27 27 28 26 15 6 3 7 10 8 7 9 5 6 9 11 12 11 5 8 6 6 6 6 15 24 24 23 14 8 12 16 21 17 13 11 12 13 8 12 8
22 24 22 23 20 29 29 21 15 2 4 6 7 9 9 8 6 5 4 5 5 8 4 5 7 9 12 7 6 2 9 14 11 14 18 21 3 5 7 6 9 7 9 16
15 19 20 18 18 24 23 12 19 4 3 4 6 7 6 5 5 3 3 3 4 4 4 6 7 7 3 4 6 7 8 4 12 18 14 5 12 17 8 9 4 7 7 14
9 15 17 14 19 24 20 5 26 12 4 4 7 6 6 5 4 3 3 3 3 3 3 3 1 3 4 4 3 4 4 7 4 8 5 3 19 10 5 6 6 5 6 8
5 11 15 15 17 21 19 4 15 16 2 1 9 11 8 3 2 3 3 3 1 1 3 2 2 3 2 3 4 2 2 2 3 2 4 4 4 7 9 11 5 7 5 5
11 11 8 8 15 23 19 11 18 5 3 4 4 5 8 12 12 8 3 3 1 2 2 3 3 4 3 4 4 5 4 4 3 7 2 7 2 6 8 11 13 6 5 5
9 5 4 10 15 21 21 13 20 3 1 2 3 2 4 3 10 15 14 3 2 0 2 3 4 4 3 5 7 10 8 7 5 7 5 8 4 4 8 9 9 7 3 4
9 9 9 11 21 19 14 14 11 2 2 0 2 2 2 3 7 11 13 12 9 5 3 4 5 4 4 6 5 8 5 6 3 5 8 6 11 9 9 8 6 8 6 6
10 12 18 18 18 21 8 2 8 4 2 2 3 2 2 2 5 8 8 7 7 5 4 4 4 4 5 5 8 11 9 11 10 11 10 8 12 12 10 8 7 3 4 3
17 19 20 17 11 5 2 2 3 9 3 2 2 3 3 1 2 3 4 5 4 5 4 5 9 8 6 9 15 18 17 13 13 15 12 13 12 10 8 10 10 9 7 5
21 18 17 11 8 8 8 8 7 6 2 1 1 2 3 1 3 3 2 3 4 5 5 3 6 6 5 7 14 17 16 14 12 14 13 12 13 13 12 12 10 10 8 3
8 6 4 2 6 3 4 7 5 5 1 1 1 2 2 1 1 1 3 2 4 0 4 5 4 7 7 12 19 20 20 16 14 14 13 12 11 11 9 10 8 9 7 6
11 4 2 2 2 3 3 1 0 1 1 1 2 0 1 3 0 0 2 0 2 3 1 2 4 5 13 15 16 19 21 20 16 13 16 13 9 8 8 8 5 7 6 6
4 3 2 0 3 2 1 0 1 0 2 2 0 1 2 1 2 1 1 2 2 2 1 3 2 3 10 14 16 13 10 6 8 11 13 7 5 5 4 4 4 5 7 8
3 3 1 1 2 1 2 0 1 3 1 2 2 1 2 0 1 2 3 2 2 3 3 2 2 6 14 16 17 17 12 6 5 3 4 3 2 3 3 2 1 8 12 15
1 1 1 2 0 2 2 1 1 1 2 2 1 2 1 2 3 3 3 4 3 2 3 2 3 9 12 13 13 13 15 11 7 6 5 6 7 8 7 6 8 13 14 15
2 2 3 2 1 3 2 1 1 2 2 3 4 3 3 2 3 1 3 1 3 2 3 1 4 9 11 13 11 12 12 9 8 8 7 7 8 9 10 9 9 12 10 12
2 2 3 4 2 3 2 2 3 3 3 4 3 3 3 3 3 3 3 3 4 3 1 2 4 9 11 12 11 12 12 10 7 7 5 6 6 7 7 8 9 11 10 9
2 4 3 3 3 3 3 4 4 2 1 1 3 3 3 3 2 4 4 3 1 2 2 3 5 8 9 10 9 9 9 9 9 7 4 3 2 4 6 7 7 8 6 6
3 3 3 4 5 5 4 3 3 3 2 2 2 3 2 1 3 3 2 1 3 3 3 3 5 7 9 9 7 7 7 9 9 8 5 4 2 3 5 5 4 5 5 5
Wind_Direction
272 271 271 268 269 267 233 178 253 294 179 212 201 227 183 179 225 202 218 206 232 258 293 305 312 312 271 98 33 356 16 311 275 268 303 312 290 223 215 220 218 229 244 245
261 261 261 256 253 236 217 214 248 253 192 238 237 234 245 248 217 211 187 226 213 163 213 286 237 235 222 359 147 128 19 333 314 271 248 327 291 308 319 332 276 226 226 230
264 260 259 249 240 230 207 177 245 219 204 245 263 270 232 218 209 221 212 202 182 200 231 224 281 272 297 238 295 216 199 215 284 288 300 337 298 299 280 249 278 312 294 269
264 254 253 251 235 225 189 216 230 249 225 223 231 247 274 245 221 210 199 200 225 204 210 215 241 244 280 290 279 205 225 253 242 253 269 279 280 299 292 248 233 244 282 287
256 249 245 241 242 232 203 211 213 209 262 273 239 221 234 248 227 184 198 218 241 195 202 221 276 290 297 273 275 290 260 269 288 277 276 257 275 295 289 266 249 244 252 231
256 247 242 237 236 226 205 166 264 253 223 235 242 243 223 232 148 207 246 264 216 232 245 266 278 279 267 254 260 268 275 265 265 276 278 287 266 273 292 276 246 241 229 210
251 244 240 236 234 226 208 175 150 222 236 221 232 221 192 187 221 234 201 221 229 143 267 287 270 258 257 258 254 242 240 238 262 271 282 261 269 219 235 264 274 250 232 243
247 241 233 236 239 234 202 188 177 226 261 233 198 190 238 246 240 250 261 256 258 286 273 276 270 247 252 244 245 246 233 233 253 254 262 281 263 236 247 237 279 227 234 220
245 230 221 231 240 207 192 194 186 165 268 199 242 192 211 242 235 206 229 235 218 202 235 227 245 260 285 276 305 347 235 211 219 239 254 267 323 11 345 272 254 348 263 196
222 217 214 230 228 194 184 174 183 168 224 193 194 216 192 201 200 233 179 170 180 212 226 237 251 265 210 303 324 332 304 269 241 237 246 239 1 325 310 211 57 349 243 175
192 210 214 205 185 189 195 159 189 186 217 189 213 214 180 169 210 206 133 204 200 209 247 270 306 290 10 285 330 346 313 315 358 333 263 219 355 334 285 356 7 17 93 147
124 151 165 179 187 183 169 129 175 165 161 258 218 235 249 248 332 234 196 329 209 261 266 236 272 257 233 293 312 309 359 334 315 272 330 262 328 342 321 334 336 23 61 108
119 139 155 181 173 177 178 138 142 125 197 187 212 222 227 236 231 225 253 204 168 189 358 336 315 275 312 291 309 297 315 311 258 322 237 261 190 270 321 342 344 7 357 136
92 132 148 157 164 169 180 159 170 198 149 221 144 154 215 221 216 217 226 281 124 40 258 251 264 269 215 284 300 286 282 291 294 285 311 326 202 267 338 343 2 339 195 138
77 98 134 135 149 151 173 153 175 237 299 146 151 204 158 242 205 207 215 220 241 249 234 235 252 273 270 254 276 263 233 244 248 294 314 299 305 322 319 316 342 9 31 97
119 92 111 123 129 128 126 91 210 201 46 316 192 90 145 103 185 198 204 215 228 237 232 253 251 270 268 273 275 282 265 252 269 277 294 279 291 294 304 307 337 322 337 332
97 109 106 98 102 108 50 36 118 175 162 258 223 170 118 56 169 173 195 196 221 243 249 245 264 265 199 268 266 271 280 268 269 277 276 267 261 267 269 298 301 311 299 280
90 103 100 92 75 68 55 65 117 109 131 328 268 154 177 4 183 194 204 221 219 224 248 246 257 262 239 265 272 287 292 290 281 268 266 268 274 278 276 279 278 280 275 206
68 22 12 5 33 37 43 63 106 53 13 231 244 255 121 357 130 296 183 250 245 68 258 266 280 253 236 276 305 304 300 288 282 282 275 263 260 269 274 261 242 248 254 159
334 7 33 58 37 102 332 356 22 321 323 264 274 102 198 296 348 116 289 310 298 284 277 325 250 264 268 298 297 285 282 275 271 256 252 241 244 240 252 254 239 241 216 170
33 28 46 18 346 299 359 308 281 247 217 196 58 281 308 93 274 314 2 300 271 263 225 278 279 280 322 321 323 325 319 252 242 237 243 245 236 254 249 301 254 224 176 147
59 83 136 281 324 247 247 230 243 239 53 157 273 58 300 143 231 259 171 252 239 260 339 268 258 332 330 344 351 3 22 52 100 125 183 194 278 336 359 14 265 154 123 108
219 195 136 283 215 230 240 169 183 232 176 193 222 248 259 182 220 239 219 230 242 310 236 272 5 347 347 349 351 4 18 38 56 64 71 89 81 69 75 91 111 122 110 108
302 320 302 281 226 243 235 290 9 52 247 230 278 265 232 167 225 254 255 179 251 241 236 150 2 349 342 355 357 8 8 11 19 39 49 64 85 85 72 72 87 101 105 118
272 246 248 225 245 243 254 274 265 244 264 281 274 240 237 175 229 224 245 219 234 234 71 56 3 342 345 351 359 359 356 358 6 15 46 70 83 92 93 87 85 94 97 100
242 228 243 216 251 248 221 220 246 192 221 269 241 260 234 208 231 218 215 248 304 86 49 21 353 350 355 356 349 351 347 356 5 17 29 50 66 105 109 106 104 108 126 139
231 245 258 263 286 272 255 244 234 163 220 265 289 245 241 266 229 223 235 84 64 36 38 11 18 2 357 353 345 340 344 346 352 352 4 1 29 125 140 132 137 137 140 150